RH
9 10 8 7 20 28 28 61 75 78 94 95 95 96 96 83 76 81 82 68 47 38 34 33 37 50 71 90 62 42 37 47 80 87 78 67 65 51 37 17 5 3 2 2 2 2 5 8 8
8 9 9 9 9 11 9 14 23 40 37 46 76 84 92 96 83 84 92 93 82 62 54 37 37 33 35 82 84 66 43 38 51 84 84 77 69 66 52 38 9 5 3 2 3 2 3 10 9
8 9 11 11 12 11 10 8 7 8 22 7 10 26 49 69 73 76 66 79 92 95 88 84 65 70 51 37 36 57 68 54 40 44 82 86 73 73 72 53 37 10 4 3 2 3 5 12 15
9 9 10 12 13 13 13 10 8 8 6 6 6 6 9 19 26 18 16 19 49 92 85 89 82 75 82 66 47 36 30 29 46 48 40 68 85 67 74 79 59 40 5 3 2 2 5 8 12
8 9 10 11 13 12 11 11 10 8 7 6 6 7 5 6 6 6 6 6 9 35 49 46 63 88 91 91 70 56 46 37 29 36 58 47 51 89 73 72 81 68 50 5 3 2 2 4 12
9 8 9 11 11 12 12 11 10 8 7 6 6 6 5 5 5 5 5 6 6 6 7 13 24 39 65 88 90 68 56 54 46 38 41 54 70 65 86 88 72 78 78 65 9 3 2 3 6
12 11 11 11 11 11 11 12 11 10 6 5 5 5 4 4 4 4 4 4 4 6 7 4 5 10 22 28 31 43 51 67 84 72 66 70 61 60 67 74 92 84 76 83 79 21 3 2 3
11 12 13 12 11 11 11 11 12 12 11 8 6 6 6 5 4 4 3 3 3 4 4 4 4 4 5 6 12 15 17 21 34 52 65 68 78 79 69 64 73 88 94 84 85 83 40 4 2
13 11 13 12 11 11 11 11 12 12 12 12 11 10 8 7 6 4 3 3 3 3 3 3 3 4 4 4 4 5 8 7 10 18 25 28 27 34 43 47 62 74 74 88 92 81 77 46 4
22 18 16 14 12 10 11 11 12 12 12 12 12 13 12 10 8 6 5 3 3 3 2 2 3 3 3 3 3 4 4 4 4 6 9 12 18 20 18 23 34 39 64 65 85 95 82 70 46
36 25 21 17 14 12 11 10 11 12 12 12 14 13 13 13 12 10 7 6 5 4 3 3 2 2 2 2 3 3 3 3 3 3 4 4 4 5 7 11 14 19 27 66 70 94 83 88 71
92 49 35 26 21 16 13 12 12 12 12 13 14 14 13 13 14 15 13 10 7 6 5 4 3 3 2 2 2 2 2 2 2 2 2 2 2 2 3 3 3 3 3 7 30 51 62 57 87
12 61 86 59 41 29 21 16 14 13 12 13 13 14 14 14 14 14 15 16 14 11 9 7 6 5 4 4 3 3 3 2 2 2 2 2 2 2 2 2 2 2 2 2 2 4 11 19 34
18 12 13 51 90 73 43 32 23 19 16 14 14 14 15 15 15 14 15 16 17 16 15 14 12 10 8 7 6 5 4 4 4 4 4 4 4 4 3 3 3 3 3 3 2 2 2 3 6
17 17 16 12 11 39 77 74 55 36 26 21 17 15 15 15 15 15 15 16 16 17 18 17 16 16 14 13 12 10 9 8 8 7 5 5 4 4 4 4 4 4 4 4 4 4 4 3 4
21 19 20 18 16 14 14 27 61 68 61 44 31 23 19 17 17 16 17 17 18 17 18 19 19 19 19 18 17 16 16 15 15 14 13 12 10 9 7 7 6 6 6 6 6 6 5 5 5
24 25 20 18 19 17 18 14 19 46 64 70 62 48 35 26 22 19 19 19 19 19 19 19 19 20 21 21 21 21 21 21 21 20 20 20 19 18 17 16 15 14 13 12 11 10 10 9 8
47 32 26 23 22 26 21 17 17 19 29 58 72 74 66 55 41 29 25 23 22 20 21 23 22 22 22 22 22 22 22 23 23 23 23 23 22 23 24 23 22 21 20 19 18 18 16 16 15
79 76 71 59 37 23 26 24 24 23 17 14 24 52 73 76 77 66 47 34 28 26 26 25 25 26 25 25 25 24 24 25 25 25 26 25 25 25 26 26 27 27 27 25 23 21 20 17 15
75 78 76 76 73 65 56 30 44 27 21 24 24 19 28 52 60 66 62 54 45 37 32 30 29 28 27 27 27 27 27 27 27 28 27 28 28 29 29 30 31 30 28 26 25 24 22 19 18
56 76 83 78 80 72 66 54 66 63 47 50 35 38 31 32 32 42 56 63 57 52 46 37 33 32 31 32 32 33 33 33 34 33 34 38 43 41 34 34 32 29 27 25 23 22 21 19 18
36 76 85 83 79 75 76 48 62 81 74 77 87 64 62 58 56 60 60 60 69 62 53 44 41 42 42 41 40 41 42 41 38 41 43 50 53 45 38 35 31 29 27 26 24 22 20 18 16
13 24 36 76 92 78 79 85 48 85 96 90 91 94 86 82 84 85 79 78 73 70 61 56 52 49 48 50 51 49 48 47 48 53 57 64 51 42 38 34 32 30 28 26 22 17 15 13 10
10 8 14 28 34 53 93 93 59 79 96 98 96 92 80 78 82 89 100 99 88 78 70 62 58 58 60 61 58 54 54 57 69 71 76 67 50 42 39 36 34 31 28 22 16 11 8 7 6
19 16 11 11 21 48 62 88 96 90 95 95 96 100 97 92 89 97 100 96 91 89 79 71 66 65 65 64 62 62 64 73 78 84 80 62 48 44 40 37 32 25 18 13 10 9 8 7 8
36 29 22 18 11 12 60 87 97 95 100 96 98 99 100 100 100 100 100 100 100 96 91 83 79 77 76 76 73 73 73 76 91 82 65 56 50 45 39 30 22 16 12 10 10 10 12 11 10
58 43 36 32 26 19 18 64 92 89 98 100 100 100 100 100 100 100 100 100 100 100 100 100 100 96 94 92 92 90 95 99 90 75 69 57 49 40 31 22 17 14 13 13 14 14 13 11 8
99 83 63 52 43 31 19 19 75 93 99 100 100 100 100 100 100 100 100 100 100 100 100 100 100 100 100 100 100 100 100 98 94 79 58 50 40 30 24 21 18 18 18 18 17 14 10 7 5
100 100 100 96 79 55 32 27 30 60 100 100 100 100 100 100 100 100 100 100 100 100 99 100 100 100 100 100 100 99 98 91 72 59 50 41 36 35 31 26 25 25 22 16 11 8 7 7 6
100 100 100 100 95 79 64 47 42 34 62 100 100 98 97 99 100 100 100 100 100 100 100 100 99 97 97 98 98 97 90 73 64 56 49 44 44 40 32 31 28 19 12 10 9 9 8 8 8
Wind_Speed
23 22 23 24 27 26 17 17 19 21 30 29 32 36 32 33 33 29 26 26 25 21 20 20 22 24 23 22 24 22 23 22 21 19 18 17 16 15 14 14 13 12 11 10 9 11 12 11 9
28 27 27 27 29 24 19 18 22 25 27 26 24 24 28 31 32 35 29 31 34 31 27 24 20 20 22 25 23 22 24 24 24 25 20 22 21 18 15 15 15 15 14 13 11 11 13 12 11
33 32 32 32 32 26 21 24 28 28 29 27 29 32 33 35 29 27 29 29 29 28 31 32 26 22 22 23 25 25 25 24 25 26 25 20 24 22 19 17 18 18 18 17 15 13 13 12 13
36 37 37 37 34 28 26 29 30 30 30 30 31 33 33 34 33 27 27 26 29 27 26 29 26 30 29 27 26 25 26 25 25 26 26 25 22 23 22 20 20 20 21 21 20 18 15 13 13
42 41 41 41 38 33 30 32 33 31 32 32 34 34 33 34 35 32 30 28 28 32 31 33 28 30 33 34 29 28 27 27 27 26 26 26 26 23 25 23 22 22 22 23 22 23 18 15 16
45 45 46 43 37 34 32 33 34 34 33 35 35 34 33 34 35 35 33 32 31 31 32 34 36 34 33 34 32 30 30 30 30 28 26 25 24 25 27 25 25 25 25 24 25 25 23 19 17
48 47 48 43 38 38 36 35 36 35 35 37 34 33 33 33 34 34 34 33 33 34 35 35 35 36 36 36 34 34 33 34 34 32 29 28 26 26 26 29 27 28 28 28 27 26 27 24 22
51 50 50 47 42 42 40 39 37 37 38 38 35 34 34 34 33 34 33 32 32 35 36 37 37 36 35 35 36 35 33 34 34 33 34 34 32 31 30 29 29 30 29 32 30 29 27 28 28
53 54 53 51 47 46 45 43 41 38 36 37 37 37 35 34 33 33 33 32 33 35 36 36 37 38 37 37 37 36 36 36 36 36 35 34 32 31 29 29 31 34 32 32 35 34 31 31 31
55 56 55 53 51 50 50 48 46 42 40 38 36 37 36 36 35 35 34 34 33 33 34 35 36 37 36 35 36 36 36 36 37 37 36 37 36 36 36 34 32 33 36 34 36 37 37 34 33
55 56 56 56 54 52 52 52 51 48 45 40 39 39 39 39 39 38 37 37 36 34 33 33 34 35 36 36 36 35 34 34 35 35 35 36 36 38 37 36 36 36 34 35 35 36 31 38 37
54 55 55 57 57 55 55 55 54 52 49 46 45 44 43 42 41 40 40 40 39 38 37 36 35 34 35 36 36 36 35 34 34 33 34 33 33 35 33 34 35 35 33 33 35 36 33 36 34
46 49 55 56 57 57 58 58 58 56 55 52 50 49 48 46 45 45 44 43 42 41 40 40 39 38 37 37 37 37 37 36 35 35 34 34 33 34 33 34 34 33 32 30 29 29 30 32 38
43 45 50 54 57 58 59 59 60 58 58 56 55 54 52 51 49 48 47 48 47 46 45 44 43 42 42 42 41 41 41 40 39 39 38 38 38 36 36 37 36 36 35 33 31 30 30 30 32
41 43 46 49 53 56 59 61 59 60 61 59 58 58 57 56 54 53 52 51 50 49 49 48 47 47 46 46 46 45 45 44 44 43 43 43 43 42 42 42 41 40 40 40 38 36 35 33 32
43 45 48 49 51 54 56 56 58 60 61 61 60 59 59 59 58 57 56 55 54 53 53 52 51 50 50 49 49 48 48 48 48 47 47 47 47 47 48 48 47 46 46 46 46 44 42 40 38
48 49 47 50 54 55 55 55 57 58 61 62 61 60 60 60 60 59 59 59 58 56 55 56 56 55 54 53 53 52 52 51 51 51 51 50 49 49 49 50 50 50 50 50 50 50 48 46 43
40 46 50 50 51 54 55 54 57 59 60 61 62 62 61 61 60 60 61 61 60 59 59 58 57 57 57 57 57 56 55 54 54 53 53 53 52 52 51 51 52 51 52 52 52 51 51 50 48
33 36 39 43 47 52 53 53 56 58 59 60 61 61 59 59 62 63 62 62 61 61 60 60 59 58 58 58 58 57 56 55 54 54 54 54 54 54 54 54 54 54 54 54 54 54 53 52 51
32 34 36 39 41 45 49 49 53 55 56 58 60 61 62 62 61 61 62 62 63 62 62 61 61 60 60 60 59 59 58 57 57 56 55 55 55 56 56 55 55 55 55 55 56 56 56 56 55
32 33 34 36 38 42 44 45 49 51 53 58 60 60 60 59 59 60 62 63 64 65 64 64 62 61 61 60 59 59 59 58 57 56 57 57 58 59 57 56 55 55 55 56 57 58 60 60 59
29 32 34 34 36 38 40 45 40 42 46 52 57 60 60 59 58 58 59 60 61 63 65 65 64 61 60 60 60 60 59 58 58 58 59 59 59 59 58 56 55 55 56 57 58 60 61 61 61
25 28 31 33 34 34 35 39 42 35 37 43 46 53 57 58 58 58 57 59 60 60 62 63 63 63 62 61 60 60 58 57 59 59 59 58 58 58 57 56 56 58 59 59 60 60 61 62 63
22 23 27 29 31 35 33 34 37 37 35 37 42 42 49 53 54 55 57 59 60 60 61 61 62 62 62 62 61 61 60 59 61 61 60 59 58 58 57 58 59 61 62 63 64 64 64 64 66
24 23 23 25 26 28 32 32 31 34 32 36 38 40 42 45 50 54 56 58 58 60 61 62 61 61 62 63 63 62 62 62 62 59 59 59 58 58 59 61 62 63 64 64 64 64 64 65 65
26 25 25 25 23 24 26 28 28 30 29 29 34 38 39 40 45 48 51 54 54 59 61 61 61 62 63 64 65 65 63 62 59 58 59 59 59 60 60 61 62 63 64 64 64 64 66 67 68
29 28 26 27 27 26 24 26 25 28 29 27 28 31 37 41 42 44 45 52 58 60 61 62 62 62 62 63 65 66 64 61 59 59 59 60 59 60 60 61 62 62 62 63 65 67 70 72 74
32 31 29 29 30 27 26 24 24 23 25 24 26 29 29 31 39 44 47 47 49 50 52 56 58 60 62 63 63 62 61 59 57 58 58 57 57 58 59 60 60 61 64 66 69 72 75 78 81
35 35 36 35 32 31 29 28 24 26 26 26 25 23 28 32 33 35 40 45 48 50 51 51 52 52 52 52 52 52 52 53 55 55 55 54 55 55 56 58 59 63 66 70 73 77 81 85 90
36 37 38 38 36 36 35 31 29 27 26 26 26 28 31 30 30 33 38 41 41 43 44 46 47 49 50 51 52 52 52 53 53 53 53 53 54 55 55 57 60 63 68 72 78 84 90 96 99
Wind_Direction
240 233 233 233 240 246 232 231 228 246 227 226 230 227 234 237 228 228 226 223 225 215 216 219 225 227 223 227 230 227 229 224 226 231 232 231 228 218 215 227 231 238 249 237 225 230 230 228 225
238 236 234 236 242 244 235 226 228 230 232 228 231 236 237 243 240 233 235 228 222 214 212 211 217 228 225 227 229 229 229 227 227 228 228 229 230 226 220 221 223 233 237 247 243 234 232 231 227
234 236 235 235 239 245 239 234 230 223 227 229 225 224 231 239 237 225 228 237 233 227 224 217 218 227 231 233 236 235 235 234 234 234 233 238 229 230 227 220 227 225 233 238 243 240 234 225 236
233 233 236 242 247 242 237 236 235 232 231 228 230 226 229 239 240 230 235 229 231 242 237 244 230 238 233 236 235 234 239 240 239 239 237 238 243 236 237 233 229 234 230 230 237 240 232 230 230
235 237 238 244 247 244 235 230 235 235 235 232 232 230 231 237 243 242 234 236 233 230 232 236 249 239 243 235 237 237 238 241 242 242 242 241 244 241 239 240 239 238 245 240 236 241 237 229 230
236 237 241 243 247 243 239 234 230 230 231 234 233 233 233 233 238 241 240 236 234 239 237 235 234 233 244 249 240 238 241 242 243 244 246 245 241 243 244 242 241 242 242 247 249 247 244 238 234
238 239 242 242 239 241 240 237 233 230 226 229 232 232 233 234 236 239 241 238 239 234 237 242 239 237 236 237 237 237 239 242 245 244 247 247 247 246 246 250 246 247 245 246 246 249 249 243 238
236 238 241 243 239 240 239 239 237 233 230 230 232 230 232 231 232 234 237 237 235 237 237 236 239 241 241 240 239 239 240 244 243 243 245 249 252 250 247 250 256 261 252 247 250 250 249 246 244
236 237 238 239 240 241 242 240 239 237 234 234 234 235 235 234 235 237 236 234 231 232 235 237 237 239 239 241 243 241 240 239 242 244 246 250 250 251 250 250 258 261 263 258 250 248 248 250 244
235 236 238 239 238 239 240 242 241 238 236 234 235 236 236 236 237 238 237 235 233 230 229 231 235 237 240 241 241 242 244 243 244 243 244 246 246 248 250 253 257 263 272 275 257 252 251 248 248
236 236 237 238 238 238 240 241 241 240 237 236 237 237 237 236 236 236 237 239 240 237 235 233 231 233 236 238 242 242 241 241 242 244 246 246 249 249 249 251 252 250 253 270 274 259 269 254 249
238 238 237 238 238 237 238 238 241 242 240 238 236 236 237 236 236 237 239 239 239 239 238 238 237 234 233 234 236 239 241 242 243 243 245 248 251 253 253 254 253 253 253 251 263 279 280 280 272
242 243 241 240 240 238 237 237 238 239 240 239 238 238 237 236 237 238 238 239 241 241 240 240 239 239 239 239 239 239 240 242 243 244 246 248 247 250 252 255 256 257 258 256 253 258 265 271 280
242 239 240 241 241 241 240 239 237 237 240 240 239 239 239 239 237 238 240 240 240 240 241 241 241 241 242 242 242 243 243 244 245 245 246 248 250 250 251 253 255 258 258 256 256 255 255 260 268
241 242 243 242 242 243 242 241 241 239 239 239 239 239 239 239 239 238 237 240 241 242 243 243 244 244 244 244 244 245 246 246 246 247 248 248 250 252 253 255 256 257 260 261 260 257 258 258 262
246 244 244 245 245 244 243 242 241 242 242 242 241 239 240 240 239 240 240 239 239 240 242 243 243 244 245 246 246 247 248 249 249 250 250 249 249 249 251 253 254 256 259 261 262 262 260 260 259
248 246 245 244 244 244 244 241 242 241 241 241 241 241 240 241 242 241 241 241 241 240 240 242 243 243 244 245 246 247 248 250 251 252 252 252 251 251 252 252 253 255 256 257 259 261 261 262 261
248 245 243 246 244 244 244 243 243 242 240 241 241 240 239 239 241 241 241 241 242 241 241 241 242 243 243 244 245 246 248 249 250 252 253 255 256 256 256 256 256 256 256 257 258 260 262 261 261
251 250 250 249 246 246 246 243 245 244 243 243 243 243 241 240 239 240 241 241 241 242 242 243 243 244 244 245 246 247 249 250 251 252 253 254 255 255 256 256 256 257 258 259 259 260 261 261 260
257 255 253 251 250 247 245 244 246 247 245 245 244 243 242 242 241 241 242 243 243 243 243 242 244 244 245 246 248 249 250 251 252 254 256 257 257 257 256 256 257 256 256 256 257 258 258 258 260
260 260 259 255 253 252 251 245 246 248 245 245 245 244 243 244 243 243 243 242 243 244 244 244 243 244 246 248 249 250 252 253 254 255 257 259 261 260 256 255 255 256 257 256 256 257 258 258 259
266 261 260 258 256 256 253 249 244 247 247 245 243 243 242 243 242 242 244 245 245 246 245 244 244 245 246 248 249 250 251 253 255 256 259 261 260 256 254 254 255 255 256 258 260 260 260 260 261
273 268 265 262 261 258 259 258 244 243 245 243 240 239 239 241 242 242 242 242 242 243 243 243 244 245 245 247 248 251 252 252 255 257 261 259 255 253 253 254 255 257 257 258 257 257 258 259 259
278 277 271 268 266 262 259 260 251 254 244 243 241 240 238 237 237 240 240 243 240 240 242 242 242 243 245 247 249 250 251 253 257 257 256 254 253 253 254 255 256 257 257 257 256 255 255 257 257
274 275 276 274 268 268 263 261 258 259 254 243 241 240 237 238 240 238 234 238 240 238 239 240 242 243 246 247 248 250 252 257 258 254 251 251 252 253 255 256 257 258 258 257 257 258 258 258 258
271 270 272 275 276 271 265 262 259 254 257 251 245 241 237 235 237 241 240 239 240 241 239 239 241 242 245 247 249 251 253 256 252 250 250 252 253 255 256 257 258 258 258 258 258 259 260 260 260
268 266 269 270 271 271 269 266 261 257 255 251 243 240 239 237 236 237 237 240 243 244 245 245 246 247 248 250 250 252 253 248 247 249 252 253 255 257 258 259 259 260 260 261 262 263 263 263 262
266 265 264 265 266 267 267 264 261 257 255 253 244 240 240 236 234 234 234 234 236 238 240 241 242 244 246 248 249 249 246 245 247 251 253 254 256 258 260 261 261 262 264 265 266 266 266 266 265
267 264 261 261 260 260 257 259 257 253 250 245 240 239 237 238 238 238 236 235 237 236 235 235 237 239 240 241 241 243 245 248 250 252 253 255 258 260 262 263 265 268 269 271 271 270 270 269 268
264 267 264 260 255 253 255 253 254 252 250 250 244 238 237 240 241 238 236 239 242 244 245 246 246 247 247 247 247 247 248 250 252 253 255 257 261 262 264 266 269 272 274 275 274 273 272 272 271